Powrót do katalogu

STARLINK-37392

AktywnyŁącznośćVLEO
NORAD 69171·PAYLOAD·🇺🇸 United States

Wystrzelony May 21, 2026 z Cape Canaveral Space Force Station

Loading…

Następne Przeloty (najbliższe 24 godziny)

TLE

ŚwieżeSource: CelesTrak SupGP

Epoka: Sep 15, 2026, 03:37 UTC

1 69171C 26111Z   26258.15118056 -.00026864  00000+0 -79390-3 0  2581
2 69171  53.1564  90.4441 0001195  89.8486 191.5258 15.34396513    13

Śledź STARLINK-37392 w czasie rzeczywistym z AllMySat

Download on the App Store